Date String (YYYY-MM-DD hh:mm:ss) UTC,Instrument flags,Ambient pressure (hPa),Sample flow (lpm),Bypass flow (lpm),Sample temperature (°C),Ambient temperature (°C),ASC tube jacket temperature (°C),LED temperature (°C),Box temperature (°C),Sample RH (%),Span deviation,Mass concentration (μg/m³),Mass concentration (μg/m³),Mass concentration (μg/m³)
DateTimeUTC,F1_M11,P_M11,Q1_M11,Q2_M11,T1_M11,T2_M11,T3_M11,T4_M11,T5_M11,U1_M11,ZSPAN_M11,X0_M11,X2_M11,X1_M11
2021-11-28 21:00:00,,0828.8,5.01,0.00,28.9,28.2,00.0,37.7,30.7,11.4,0000.0,0012.13,0002.16,0001.13
2021-11-28 21:01:00,,0828.9,5.00,0.00,28.9,28.2,00.0,37.7,30.7,11.4,0000.0,0011.28,0002.20,0001.12
2021-11-28 21:02:00,,0829.0,5.00,0.00,28.9,28.2,00.0,37.8,30.8,11.4,0000.0,0009.18,0002.22,0001.12
2021-11-28 21:03:00,,0829.1,5.00,0.00,28.9,28.3,00.0,37.8,30.8,11.4,0000.0,0008.79,0002.17,0001.12
2021-11-28 21:04:00,,0828.9,5.00,0.00,29.0,28.3,00.0,37.8,30.8,11.4,0000.0,0009.16,0002.15,0001.11
2021-11-28 21:05:00,,0829.2,4.99,0.00,29.0,28.3,00.0,37.8,30.8,11.4,0000.0,0008.27,0002.10,0001.11
2021-11-28 21:06:00,,0828.8,5.01,0.00,29.0,28.4,00.0,37.9,30.8,11.3,0000.0,0008.54,0002.06,0001.11
2021-11-28 21:07:00,,0828.9,5.00,0.00,29.0,28.4,00.0,37.9,30.9,11.3,0000.0,0008.58,0002.04,0001.10
2021-11-28 21:08:00,,0828.9,4.99,0.00,29.0,28.4,00.0,37.9,30.9,11.3,0000.0,0009.36,0002.04,0001.08
2021-11-28 21:09:00,,0828.8,5.00,0.00,29.1,28.4,00.0,37.9,30.9,11.3,0000.0,0010.29,0002.06,0001.07
2021-11-28 21:10:00,,0828.9,5.00,0.00,29.1,28.4,00.0,37.9,30.9,11.2,0000.0,0010.03,0002.05,0001.06
2021-11-28 21:11:00,,0828.9,5.00,0.00,29.1,28.5,00.0,38.0,30.9,11.2,0000.0,0009.98,0002.02,0001.04
2021-11-28 21:12:00,,0828.8,5.01,0.00,29.1,28.5,00.0,38.0,31.0,11.3,0000.0,0010.00,0002.04,0001.03
2021-11-28 21:13:00,,0828.9,4.99,0.00,29.1,28.5,00.0,38.0,31.0,11.3,0000.0,0010.17,0002.03,0001.03
2021-11-28 21:14:00,,0829.3,5.00,0.00,29.2,28.6,00.0,38.0,31.0,11.3,0000.0,0010.34,0002.02,0001.01
2021-11-28 21:15:00,,0829.3,4.99,0.00,29.2,28.6,00.0,38.1,31.0,11.2,0000.0,0010.18,0002.07,0001.00
2021-11-28 21:16:00,,0829.3,5.01,0.00,29.2,28.6,00.0,38.1,31.1,11.2,0000.0,0010.49,0002.06,0000.99
2021-11-28 21:17:00,,0829.3,5.00,0.00,29.2,28.6,00.0,38.1,31.1,11.2,0000.0,0010.10,0002.04,0000.98
2021-11-28 21:18:00,,0829.2,5.00,0.00,29.3,28.6,00.0,38.1,31.1,11.2,0000.0,0009.53,0002.09,0000.98
2021-11-28 21:19:00,,0829.3,5.02,0.00,29.3,28.7,00.0,38.1,31.1,11.1,0000.0,0009.23,0002.11,0000.98
2021-11-28 21:20:00,,0829.3,4.99,0.00,29.3,28.7,00.0,38.1,31.1,11.1,0000.0,0008.31,0002.07,0000.97
2021-11-28 21:21:00,,0829.0,5.00,0.00,29.3,28.7,00.0,38.2,31.2,11.0,0000.0,0008.65,0002.05,0000.96
2021-11-28 21:22:00,,0828.8,5.01,0.00,29.3,28.7,00.0,38.2,31.2,11.0,0000.0,0008.69,0002.01,0000.95
2021-11-28 21:23:00,,0828.9,5.01,0.00,29.4,28.7,00.0,38.2,31.2,11.1,0000.0,0008.98,0001.98,0000.94
2021-11-28 21:24:00,,0828.9,4.99,0.00,29.4,28.8,00.0,38.2,31.2,11.1,0000.0,0008.83,0001.92,0000.93
2021-11-28 21:25:00,,0828.9,5.01,0.00,29.4,28.8,00.0,38.2,31.3,11.0,0000.0,0008.77,0001.96,0000.93
2021-11-28 21:26:00,,0828.9,5.00,0.00,29.4,28.8,00.0,38.3,31.2,11.0,0000.0,0008.47,0001.92,0000.92
2021-11-28 21:27:00,,0828.9,5.00,0.00,29.4,28.8,00.0,38.3,31.3,11.0,0000.0,0008.15,0001.89,0000.92
2021-11-28 21:28:00,,0829.0,5.00,0.00,29.5,28.8,00.0,38.3,31.3,10.9,0000.0,0008.07,0001.92,0000.92
2021-11-28 21:29:00,,0829.0,4.99,0.00,29.5,28.9,00.0,38.3,31.3,10.9,0000.0,0008.05,0001.91,0000.91
2021-11-28 21:30:00,,0829.0,5.01,0.00,29.5,28.9,00.0,38.4,31.3,10.8,0000.0,0007.75,0001.87,0000.90
2021-11-28 21:31:00,,0828.9,5.00,0.00,29.5,28.9,00.0,38.4,31.3,10.8,0000.0,0007.89,0001.86,0000.88
2021-11-28 21:32:00,,0828.9,4.99,0.00,29.5,29.0,00.0,38.4,31.3,10.8,0000.0,0007.70,0001.85,0000.88
2021-11-28 21:33:00,,0828.9,5.01,0.00,29.6,29.0,00.0,38.4,31.4,10.7,0000.0,0007.44,0001.83,0000.87
2021-11-28 21:34:00,,0828.8,5.00,0.00,29.6,29.0,00.0,38.4,31.4,10.7,0000.0,0006.87,0001.77,0000.84
2021-11-28 21:35:00,,0828.8,5.01,0.00,29.6,29.1,00.0,38.5,31.4,10.7,0000.0,0006.52,0001.77,0000.82
2021-11-28 21:36:00,,0828.8,5.00,0.00,29.6,29.1,00.0,38.5,31.5,10.7,0000.0,0006.35,0001.72,0000.81
2021-11-28 21:37:00,,0828.8,4.99,0.00,29.7,29.1,00.0,38.5,31.5,10.8,0000.0,0006.62,0001.68,0000.79
2021-11-28 21:38:00,,0828.8,5.00,0.00,29.7,29.1,00.0,38.5,31.5,10.7,0000.0,0007.49,0001.70,0000.78
2021-11-28 21:39:00,,0828.9,5.01,0.00,29.7,29.1,00.0,38.5,31.6,10.7,0000.0,0007.41,0001.67,0000.78
2021-11-28 21:40:00,,0828.9,5.01,0.00,29.7,29.1,00.0,38.6,31.6,10.7,0000.0,0007.72,0001.61,0000.76
2021-11-28 21:41:00,,0828.9,5.00,0.00,29.8,29.1,00.0,38.6,31.6,10.7,0000.0,0007.63,0001.60,0000.77
2021-11-28 21:42:00,,0828.9,4.99,0.00,29.8,29.2,00.0,38.6,31.7,10.6,0000.0,0007.36,0001.58,0000.77
2021-11-28 21:43:00,,0828.9,5.00,0.00,29.8,29.2,00.0,38.6,31.7,10.6,0000.0,0007.53,0001.60,0000.76
2021-11-28 21:44:00,,0828.9,4.99,0.00,29.8,29.2,00.0,38.7,31.7,10.5,0000.0,0007.54,0001.58,0000.75
2021-11-28 21:45:00,,0828.9,5.00,0.00,29.8,29.2,00.0,38.7,31.7,10.4,0000.0,0007.60,0001.60,0000.75
2021-11-28 21:46:00,,0828.9,5.00,0.00,29.9,29.2,00.0,38.7,31.7,10.4,0000.0,0007.63,0001.59,0000.74
2021-11-28 21:47:00,,0828.9,5.00,0.00,29.9,29.2,00.0,38.7,31.7,10.4,0000.0,0007.70,0001.60,0000.73
2021-11-28 21:48:00,,0829.0,5.00,0.00,29.9,29.3,00.0,38.7,31.7,10.4,0000.0,0007.31,0001.54,0000.73
2021-11-28 21:49:00,,0829.0,5.01,0.00,29.9,29.3,00.0,38.8,31.7,10.4,0000.0,0006.41,0001.49,0000.72
2021-11-28 21:50:00,,0829.0,5.00,0.00,29.9,29.3,00.0,38.8,31.7,10.4,0000.0,0006.32,0001.46,0000.70
2021-11-28 21:51:00,,0829.0,5.00,0.00,30.0,29.3,00.0,38.8,31.7,10.5,0000.0,0005.81,0001.44,0000.69
2021-11-28 21:52:00,,0829.1,4.99,0.00,30.0,29.3,00.0,38.8,31.7,10.4,0000.0,0005.89,0001.44,0000.68
2021-11-28 21:53:00,,0829.1,5.00,0.00,30.0,29.3,00.0,38.8,31.8,10.4,0000.0,0005.22,0001.44,0000.66
2021-11-28 21:54:00,,0829.1,5.00,0.00,30.0,29.4,00.0,38.9,31.8,10.3,0000.0,0004.57,0001.39,0000.65
2021-11-28 21:55:00,,0829.1,5.00,0.00,30.0,29.4,00.0,38.9,31.9,10.3,0000.0,0004.77,0001.39,0000.66
2021-11-28 21:56:00,,0829.1,4.99,0.00,30.0,29.4,00.0,38.9,31.9,10.3,0000.0,0005.13,0001.42,0000.67
2021-11-28 21:57:00,,0829.1,5.01,0.00,30.1,29.4,00.0,38.9,31.9,10.6,0000.0,0005.94,0001.46,0000.68
2021-11-28 21:58:00,,0829.2,5.00,0.00,30.1,29.4,00.0,38.9,31.9,10.7,0000.0,0006.71,0001.57,0000.71
2021-11-28 21:59:00,,0829.1,5.00,0.00,30.1,29.5,00.0,39.0,31.9,10.6,0000.0,0007.84,0001.73,0000.72
